Weather History for Homer, AK

Change the Weather History Date:

Friday, December 6, 2013

  Actual Average Record
Temperature  
Mean Temperature 39 °F -  
Max Temperature 44 °F 30 °F 48 °F (2002)
Min Temperature 34 °F 19 °F -12 °F (1975)
Degree Days  
Heating Degree Days 26    
Moisture  
Dew Point 34 °F    
Average Humidity 86    
Maximum Humidity 89    
Minimum Humidity 79    
Precipitation  
Precipitation 0.01 in - - ()
Sea Level Pressure  
Sea Level Pressure 30.50 in    
Wind  
Wind Speed 1 mph (NE)    
Max Wind Speed 5 mph    
Max Gust Speed -    
Visibility 7 miles    
Events Fog , Rain    
Averages and records for this station are not official NWS values.
T = Trace of Precipitation, MM = Missing Value Source: NWS Daily Summary

Daily Weather History Graph

Daily Weather History Graph

Search for Another Location

Airport:

Trip Planner

Search our weather history database for the weather conditions in past years. The results will help you decide how hot, cold, wet, or windy it might be!

Date:

Astronomy

Dec. 06, 2013 Rise Set
Actual Time 9:48 AM AKST 4:05 PM AKST
Civil Twilight 8:53 AM AKST 5:00 PM AKST
Nautical Twilight 7:58 AM AKST 5:55 PM AKST
Astronomical Twilight 7:07 AM AKST 6:46 PM AKST
Moon 12:17 PM AKST (12/6) 9:39 PM AKST (12/6)
Length of Visible Light 8h 07m
Length of Day
6h 17m
Waxing Crescent, 20% of the Moon is Illuminated
Dec 6
Waxing Crescent
Dec 9
First Quarter
Dec 17
Full
Dec 25
Last Quarter
Jan 1
New

Hourly Weather History & Observations

Time (AKST) Temp. Windchill Dew Point Humidity Pressure Visibility Wind Dir Wind Speed Gust Speed Precip Events Conditions
12:53 AM 37.0 °F - 34.0 °F 89% 30.50 in 7.0 mi Calm Calm - 0.00 in Rain Light Rain
1:53 AM 37.0 °F - 34.0 °F 89% 30.49 in 7.0 mi Calm Calm - 0.01 in   Overcast
3:13 AM 37.4 °F - 33.8 °F 87% 30.49 in 1.8 mi Calm Calm - 0.00 in   Overcast
3:26 AM 37.4 °F - 33.8 °F 87% 30.49 in 3.0 mi Calm Calm - 0.00 in   Overcast
3:53 AM 39.0 °F - 35.1 °F 86% 30.49 in 10.0 mi Calm Calm - 0.00 in   Overcast
4:07 AM 37.4 °F - 33.8 °F 87% 30.49 in 2.0 mi Calm Calm - N/A   Overcast
4:16 AM 37.4 °F - 33.8 °F 87% 30.49 in 4.0 mi Calm Calm - N/A   Overcast
4:53 AM 37.9 °F - 35.1 °F 89% 30.50 in 10.0 mi Calm Calm - N/A   Overcast
5:53 AM 37.9 °F - 34.0 °F 86% 30.50 in 10.0 mi Calm Calm - N/A   Overcast
6:53 AM 39.0 °F - 35.1 °F 86% 30.49 in 10.0 mi Calm Calm - N/A   Overcast
7:53 AM 39.0 °F 35.7 °F 35.1 °F 86% 30.49 in 10.0 mi Variable 4.6 mph - N/A   Overcast
8:53 AM 39.0 °F - 35.1 °F 86% 30.50 in 10.0 mi Calm Calm - N/A   Overcast
9:53 AM 39.0 °F 36.8 °F 35.1 °F 86% 30.50 in 10.0 mi NE 3.5 mph - N/A   Overcast
10:53 AM 37.9 °F - 35.1 °F 89% 30.51 in 10.0 mi Calm Calm - N/A   Overcast
11:53 AM 39.0 °F - 36.0 °F 89% 30.51 in 10.0 mi Calm Calm - N/A   Overcast
12:53 PM 42.1 °F 40.2 °F 37.0 °F 82% 30.50 in 10.0 mi West 3.5 mph - N/A   Overcast
1:53 PM 44.1 °F - 37.9 °F 79% 30.50 in 10.0 mi Calm Calm - N/A   Mostly Cloudy
2:53 PM 44.1 °F 41.5 °F 37.9 °F 79% 30.50 in 10.0 mi West 4.6 mph - N/A   Overcast
3:53 PM 42.1 °F - 37.9 °F 85% 30.51 in 10.0 mi Calm Calm - 0.00 in Rain Light Rain
4:53 PM 41.0 °F 39.0 °F 36.0 °F 82% 30.51 in 10.0 mi ENE 3.5 mph - 0.00 in   Overcast
5:53 PM 39.0 °F 35.7 °F 35.1 °F 86% 30.51 in 10.0 mi NE 4.6 mph - N/A   Mostly Cloudy
6:53 PM 37.9 °F - 34.0 °F 86% 30.52 in 10.0 mi Calm Calm - N/A   Scattered Clouds
7:53 PM 36.0 °F - 32.0 °F 86% 30.52 in 10.0 mi Calm Calm - N/A   Scattered Clouds
8:53 PM 34.0 °F - 30.9 °F 89% 30.51 in 10.0 mi Calm Calm - N/A Fog Shallow Fog
9:33 PM 37.4 °F 34.9 °F 33.8 °F 87% 30.50 in 1.2 mi ENE 3.5 mph - N/A   Partly Cloudy
9:36 PM 35.6 °F 32.8 °F 32.0 °F 87% 30.50 in 0.8 mi NE 3.5 mph - N/A   Mist
9:53 PM 34.0 °F - 30.0 °F 85% 30.50 in 0.8 mi Calm Calm - N/A   Mist
9:59 PM 35.6 °F - 30.2 °F 81% 30.49 in 1.2 mi Calm Calm - N/A   Partly Cloudy
10:53 PM 35.1 °F - 32.0 °F 89% 30.49 in 4.0 mi Calm Calm - N/A   Clear
11:06 PM 35.6 °F - 30.2 °F 81% 30.48 in 2.0 mi Calm Calm - N/A   Clear
11:36 PM 37.4 °F 33.8 °F 33.8 °F 87% 30.49 in 10.0 mi SSW 4.6 mph - N/A   Clear
11:53 PM 39.0 °F - 35.1 °F 86% 30.50 in 10.0 mi Calm Calm - N/A   Clear